www.pogodaiklimat.ru

Погода и климат >> Архив погоды >> Россия >> Ненецкий АО >> Нижняя Пеша


ПОГОДА в Нижней Пеше

  • Прогноз погоды в Нижней Пеше
  • Монитор погоды в Нижней Пеше

АРХИВ ПОГОДЫ в Нижней Пеше

Время (UTC), дата Ветер
(напр.,м/с)
 
Видим.   Явления Облачность Т
(С)
Тd
(С)
f
(%)
Тe
(С)
Тes
(С)
Комфортность P
(гПа)
Po
(гПа)
Тmin
(С)
Tmax
(С)
R
(мм)
R24
(мм)
S
(см)
18 12.06 СЗ 5 10 км слаб. ливневой дождь 10/10 300 м
[Cb cap]
+3.1 +1.8 91 -2 -2 1019.0 1017.3
21 12.06 СЗ 4 20 км {ливн. осадки} 10/10 630 м
[Sc]
+3.1 +2.1 93 -2 -2 1019.6 1017.9
00 13.06 СЗ 4 20 км {ливн. осадки} 10/10 600 м
[Sc]
+2.9 +1.3 89 -2 -2 1020.4 1018.7
03 13.06 С 6 20 км 10/10 660 м
[Sc]
+3.9 +1.9 87 -2 -2 1019.9 1018.2 +2.5 0.6
06 13.06 СЗ 8
{11}
20 км 9/9 800 м
[Sc]
+4.7 -0.0 72 -1 -1 1020.5 1018.8
09 13.06 СЗ 7
{11}
20 км 9/9 750 м
[Sc]
+6.2 +0.6 67 +1 +2 1020.4 1019.7
12 13.06 СЗ 7
{14}
20 км 10/10 700 м
[Sc]
+5.4 +0.5 71 0 0 1021.3 1019.6
15 13.06 СЗ 6
{13}
20 км 10/10 840 м
[Sc]
+5.6 +1.0 72 +1 +1 1020.7 1019.0 +6.2
18 13.06 СЗ 4
{12}
20 км 9/9 800 м
[Sc]
+4.8 +0.7 75 +1 +1 1019.3 1017.6
21 13.06 СЗ 4 20 км 10/10 600 м
[Sc]
+3.7 +0.3 78 -1 -1 1018.1 1016.4
00 14.06 СЗ 3 20 км 10/10 600 м
[Sc]
+3.1 +0.2 81 -1 -1 1017.3 1015.6
03 14.06 СЗ 5 20 км 10/10 570 м
[Sc]
+3.1 -0.4 78 -2 -2 1016.7 1015.0 +3.0
06 14.06 СЗ 4 20 км 10/10 600 м
[Sc]
+4.5 -0.3 71 +1 +1 1016.4 1014.7
09 14.06 СЗ 4 50 км 9/8 840 м
[Cu med, cong Ac trans]
+6.5 +0.1 64 +3 +4 1015.3 1013.6
12 14.06 З 6 50 км 9/3 600 м
[Cu med, cong Ac trans Ci fib]
+8.0 +0.9 61 +4 +6 1014.0 1012.4
15 14.06 СЗ 5 50 км 10/5 750 м
[Sc Ac As]
+6.4 +0.5 66 +2 +3 1012.2 1010.5 +8.8
18 14.06 СЗ 4 20 км 10/10 800 м
[Sc]
+4.7 +1.9 82 +1 +1 1010.5 1008.8
21 14.06 З 4 20 км 10/10 330 м
[St]
+4.7 +2.7 87 0 0 1008.8 1007.1
00 15.06 СЗ 4 20 км {ливн. осадки} 10/10 700 м
[Sc]
+4.0 +1.7 85 -0 -0 1007.5 1005.8
03 15.06 СЗ 4 10 км слаб. ливневой дождь 10/10 720 м
[Cb cap]
+3.5 +2.7 94 -1 -1 1007.6 1005.9 +3.3 0.6
06 15.06 СЗ 5 20 км {ливн. осадки} 10/10 630 м
[Sc]
+4.8 +1.5 79 0 0 1008.5 1006.8
09 15.06 СЗ 5
{10}
20 км {морось} 10/10 720 м
[Sc]
+5.6 +1.6 75 +1 +1 1011.5 1007.5
12 15.06 СЗ 5
{10}
20 км {морось} 10/10 540 м
[Sc]
+5.2 +2.2 81 +1 +1 1010.2 1008.5
15 15.06 З 6 20 км слаб. ливневой дождь 10/10 420 м
[Cb cap]
+4.6 +3.4 92 -1 -1 1008.5 1006.8 +5.6 1
18 15.06 З 5 20 км 10/10 630 м
[Cb cap]
+4.9 +3.7 92 0 0 1008.7 1007.0
21 15.06 З 5
{15}
20 км {ливн. осадки} 10/10 540 м
[Sc]
+4.5 +3.5 93 -1 -1 1007.3 1005.6
00 16.06 З 5 20 км {ливн. осадки} 10/10 400 м
[Sc]
+6.1 +5.4 95 +2 +2 1004.4 1002.7
03 16.06 З 6 20 км 10/10 630 м
[Sc]
+7.0 +5.6 91 +2 +2 1002.0 1000.3 +4.3 2
06 16.06 З 6 20 км {ливн. осадки} 10/10 600 м
[Sc]
+6.4 +3.3 81 +2 +2 1001.5 999.8
09 16.06 СЗ 6 20 км в посл. час ливневой дождь 10/10 900 м
[Sc]
+6.2 +3.8 85 +1 +1 1002.3 1000.6
12 16.06 З 5 20 км в посл. час ливневой дождь 10/10 960 м
[Sc]
+5.9 +3.5 85 +2 +2 1003.6 1002.0
15 16.06 З 7
{11}
20 км 10/10 660 м
[Sc]
+6.1 +1.6 73 +1 +1 1004.1 1002.4 +7.0 0.6
18 16.06 СЗ 6
{11}
10 км слаб. ливневой дождь 10/10 720 м
[Cb cap]
+4.7 +2.7 87 -1 -1 1004.1 1002.4
21 16.06 З 5 10 км слаб. ливневой дождь 10/10 300 м
[Cb cap]
+4.0 +2.8 92 -1 -1 1003.5 1001.8
00 17.06 З 5 10 км слаб. ливневой дождь 10/10 330 м
[Cb cap]
+3.7 +3.0 95 -2 -2 1003.2 1001.5
03 17.06 З 6 10 км слаб. ливневой дождь 10/10 360 м
[Cb cap]
+4.3 +2.3 87 -1 -1 1003.4 1001.7 +3.6 0.4
06 17.06 СЗ 6
{11}
20 км {ливн. осадки} 10/4 600 м
[Sc Ac trans]
+5.2 +2.0 80 0 +1 1003.9 1002.2
09 17.06 СЗ 7
{11}
20 км 10/8 720 м
[Sc Ac trans]
+6.4 +2.5 76 +2 +2 1004.9 1003.2
12 17.06 СЗ 7
{14}
20 км {ливн. осадки} 10/8 1140 м
[Sc Ac trans]
+6.8 +2.4 74 +2 +2 1005.9 1004.2
15 17.06 СЗ 7
{13}
20 км 9/9 840 м
[Sc]
+7.4 +1.3 65 +3 +3 1005.8 1004.2 +9.8 0.0
18 17.06 СЗ 6
{12}
20 км 9/9 960 м
[Sc Ac trans]
+5.7 +1.1 72 +1 +1 1005.5 1003.8
21 17.06 СЗ 5
{10}
20 км 9/9 750 м
[Sc Ac trans]
+4.6 +1.5 80 -0 -0 1004.6 1002.9
00 18.06 СЗ 5 20 км 9/6 800 м
[Sc Ac trans]
+4.0 +2.0 87 -1 -1 1004.7 1003.0
03 18.06 СЗ 4 20 км в посл. час ливневой дождь 9/9 720 м
[]
+4.3 +1.8 84 0 0 1005.3 1003.6 +3.7 0.7
06 18.06 СЗ 4 20 км {ливн. осадки} 10/10 1140 м
[Sc]
+5.1 +0.7 73 +1 +1 1006.2 1004.5
09 18.06 СЗ 4 20 км 8/8 960 м
[Sc]
+6.5 +0.4 65 +3 +5 1007.0 1005.3
12 18.06 СЗ 4 20 км 9/9 1080 м
[Sc]
+7.3 +0.2 61 +4 +5 1007.6 1005.9
15 18.06 СЗ 3 20 км 9/9 960 м
[Sc]
+6.5 +1.5 70 +4 +4 1008.2 1006.5 +9.0
18 18.06 С 3 20 км 9/9 1200 м
[Sc]
+4.6 +1.5 80 +1 +1 1008.2 1006.5
21 18.06 З 2 20 км 10/10 570 м
[Sc]
+3.1 +1.3 88 0 0 1008.2 1006.5
00 19.06 СЗ 1 20 км 3/3 300 м
[Sc]
+3.4 +1.1 85 +2 +2 1008.6 1006.9
03 19.06 СЗ 2 20 км 10/3 600 м
[Sc Ac trans]
+4.1 +0.7 78 +1 +2 1008.9 1007.2 +2.6
06 19.06 штиль 0 50 км {ливн. осадки} ?/? +5.1 +0.1 70 +4 +4 1009.1 1007.4
09 19.06 20 км н/о +6.6 -1.1 58 +4 +5 1009.3 1007.6
12 19.06 З 2 20 км 10/4 1000 м
[Sc Cs]
+9.2 +0.9 56 +8 +12 1008.7 1007.1

 

Местоположение метеостанции Нижняя Пеша (Ненецкий АО, Россия): широта 66.75 долгота 47.77 высота над уровнем моря 14 м.

В архиве по умолчанию представлена погода в Нижней Пеше за последнюю неделю. Архивные данные за месяц целиком и за предыдущие месяцы, начиная с января 2011 года, Вы можете получить, выбрав интересующий диапазон дат из раскрывающегося списка и нажав кнопку "Ввод!".


*Определитесь, кто Вы:
робот инопланетянин человек

Внимание! Время в таблицах - всемирное. Для получения местного времени необходимо прибавить поправку, которая равна 3 ч.

Смотрите также архив погоды в соседних городах и на ближайших метеорологических станциях:

Погода в Индиге (Ненецкий АО, Россия) (111 км)
Погода на Мысе Микулкин (Ненецкий АО, Россия) (126 км)
Погода в Мосеево (Архангельская область, Россия) (130 км)
Погода в Неси (Ненецкий АО, Россия) (137 км)
Погода в Коткино (Ненецкий АО, Россия) (150 км)
Погода в Мезене (Архангельская область, Россия) (186 км)
Погода в Шойне (Ненецкий АО, Россия) (199 км)
Погода в Абрамовском маяке (Архангельская область, Россия) (204 км)
Погода в Окуневом Носу (Коми, Россия) (220 км)
Погода в Койнасе (Архангельская область, Россия) (223 км)

Пояснения к столбцам:

Ветер - указаны скорость ветра в м/с - средняя за 10 мин, порывы в срок и между сроками (в фигурных скобках) и направление, откуда дует ветер: С - северный, СВ - северо-восточный, В - восточный, ЮВ - юго-восточный, Ю - южный, ЮЗ - юго-западный, З - западный, СЗ - северо-западный.
Видимость - горизонтальная дальность видимости в метрах или километрах. При видимости от 1 до 10 км при отсутствии осадков обычно наблюдается дымка, при ухудшении видимости до 1 км и менее - туман. В сухую погоду видимость может ухудшаться дымом, пылью или мглою.
Явления - указаны атмосферные явления, наблюдавшиеся в срок или в последний час перед сроком; фигурными скобками обозначены явления, наблюдавшиеся между сроками (за 1-3 часа до срока); квадратными скобками обозначены град или гололедные отложения с указанием их диаметра в мм.
Облачность - указаны через наклонную черту общая и нижняя облачность в баллах и высота нижней границы облаков в метрах; квадратными скобками обозначены формы облаков: Ci - перистые, Cs - перисто-слоистые, Cc - перисто-кучевые, Ac - высококучевые, As - высокослоистые, Sc - слоисто-кучевые, Ns - слоисто-дождевые, Cu - кучевые, Cb - кучево-дождевые. Подробнее классификацию облаков см. в Атласе облаков (PDF).
T - Температура воздуха - температура, измеренная на высоте 2 м над землей.
Td - Температура точки росы - температура, при понижении до которой содержащийся в воздухе водяной пар достигнет насыщения.
f - Относительная влажность воздуха - влажноcть воздуха, измеренная на высоте 2 м над землей.
Te - Эффективная температура - температура, которую ощущает одетый по сезону человек в тени. Характеристика душности погоды. При расчете учитывается влияние влажности воздуха и скорости ветра на теплоощущения человека.
Tes - Эффективная температура на солнце - температура, которую ощущает человек, с поправкой на солнечный нагрев. Характеристика знойности погоды. Зависит от высоты солнца над горизонтом, облачности и скорости ветра. Ночью, в пасмурную погоду, а также при ветре 12 м/с и более поправка равна нулю.
P - Атмосферное давление - приведенное к уровню моря атмосферное давление.
Po - Атмосферное давление - измеренное на уровне метеостанции атмосферное давление.
Tmin - Минимальная температура - минимум температуры воздуха на высоте 2 м над землей.
Tmax - Максимальная температура - максимум температуры воздуха на высоте 2 м над землей.
R - Количество осадков - Количество выпавших осадков за период времени, мм. При наведении курсора мыши на число - период времени, за который выпало указанное количество осадков.
R24 - Количество осадков - Количество выпавших осадков за 24 часа, мм.
S - Снежный покров - Высота снежного покрова, см. При наведении курсора мыши на число - состояние снежного покрова и степень покрытия местности в баллах.